Date String (YYYY-MM-DD hh:mm:ss) UTC,Instrument flags,absolute air pressure of the measurement (hPa),sample flow rate (lpm),inlet stack bypass flow (lpm),air temperature of the measurement (°C),ambient temperature measured by the external sensor (°C),aerosol sample conditioner tube jacket temperature (°C),OPC LED temperature (°C),internal box temperature (°C),relative humidity of the measurement (%),span deviation,mass concentration of particles derived from Lorenz-Mie calculation of OPC scattering (μg/m³),mass concentration of particles derived from Lorenz-Mie calculation of OPC scattering (μg/m³),mass concentration of particles derived from Lorenz-Mie calculation of OPC scattering (μg/m³)
DateTimeUTC,F1_M11,P_M11,Q1_M11,Q2_M11,T1_M11,T2_M11,T3_M11,T4_M11,T5_M11,U1_M11,ZSPAN_M11,X0_M11,X2_M11,X1_M11
2023-08-21 04:00:00,SystemResetWarning,0834.2,5.01,000.00,027.7,023.8,000.0,036.0,028.9,31.4,-000.1,0017.11,0009.82,0008.71
2023-08-21 04:01:00,SystemResetWarning,0834.1,5.00,000.00,027.6,024.1,000.0,036.0,028.9,31.4,-000.1,0017.20,0009.86,0008.70
2023-08-21 04:02:00,SystemResetWarning,0834.2,5.00,000.00,027.6,024.6,000.0,036.1,029.1,31.5,0000.2,0017.41,0009.89,0008.67
2023-08-21 04:03:00,SystemResetWarning,0834.2,5.00,000.00,027.6,025.0,000.0,036.1,029.2,31.4,0000.3,0017.69,0009.84,0008.63
2023-08-21 04:04:00,SystemResetWarning,0834.2,5.00,000.00,027.7,025.4,000.0,036.1,029.4,31.5,0000.2,0017.89,0009.82,0008.60
2023-08-21 04:05:00,SystemResetWarning,0834.2,4.99,000.00,027.7,025.8,000.0,036.1,029.5,31.5,0000.2,0018.15,0009.77,0008.60
2023-08-21 04:06:00,SystemResetWarning,0834.2,5.00,000.00,027.8,026.1,000.0,036.1,029.5,31.5,0000.3,0018.68,0009.77,0008.60
2023-08-21 04:07:00,SystemResetWarning,0834.2,5.00,000.00,027.8,026.4,000.0,036.2,029.6,31.0,0000.4,0018.25,0009.79,0008.60
2023-08-21 04:08:00,SystemResetWarning,0834.2,5.00,000.00,027.9,026.6,000.0,036.2,029.7,30.9,0000.6,0017.71,0009.80,0008.60
2023-08-21 04:09:00,SystemResetWarning,0834.2,5.00,000.00,027.9,026.8,000.0,036.2,029.8,30.9,0000.5,0017.41,0009.82,0008.59
2023-08-21 04:10:00,SystemResetWarning,0834.2,5.01,000.00,028.0,026.8,000.0,036.3,029.8,30.6,0000.5,0017.33,0009.79,0008.58
2023-08-21 04:11:00,SystemResetWarning,0834.2,4.99,000.00,028.0,025.4,000.0,036.2,029.6,30.7,0000.9,0017.16,0009.76,0008.57
2023-08-21 04:12:00,SystemResetWarning,0834.2,5.01,000.00,027.9,024.0,000.0,036.1,029.3,30.7,0001.3,0017.25,0009.77,0008.55
2023-08-21 04:13:00,SystemResetWarning,0834.2,5.00,000.00,027.8,023.7,000.0,036.0,029.1,30.9,0001.0,0017.12,0009.74,0008.54
2023-08-21 04:14:00,SystemResetWarning,0834.2,5.01,000.00,027.7,023.9,000.0,036.0,029.0,31.1,0000.7,0016.78,0009.70,0008.51
2023-08-21 04:15:00,SystemResetWarning,0834.2,5.00,000.00,027.7,024.4,000.0,036.1,029.1,31.1,0000.4,0017.30,0009.72,0008.49
2023-08-21 04:16:00,SystemResetWarning,0834.2,5.00,000.00,027.7,024.9,000.0,036.1,029.2,30.9,0000.7,0017.24,0009.75,0008.49
2023-08-21 04:17:00,SystemResetWarning,0834.3,4.99,000.00,027.7,025.3,000.0,036.1,029.4,31.0,0000.8,0016.62,0009.73,0008.47
2023-08-21 04:18:00,SystemResetWarning,0834.4,5.00,000.00,027.7,025.7,000.0,036.1,029.5,30.7,0001.0,0016.71,0009.70,0008.46
2023-08-21 04:19:00,SystemResetWarning,0834.3,5.00,000.00,027.8,026.0,000.0,036.2,029.5,30.4,0001.1,0016.41,0009.68,0008.45
2023-08-21 04:20:00,SystemResetWarning,0834.5,4.98,000.00,027.8,026.3,000.0,036.2,029.6,30.2,0001.4,0016.45,0009.65,0008.45
2023-08-21 04:21:00,SystemResetWarning,0834.3,5.01,000.00,027.9,026.5,000.0,036.2,029.7,30.3,0001.7,0016.30,0009.62,0008.44
2023-08-21 04:22:00,SystemResetWarning,0834.5,5.01,000.00,027.9,026.7,000.0,036.2,029.8,30.0,0001.6,0016.42,0009.61,0008.45
2023-08-21 04:23:00,SystemResetWarning,0834.3,5.01,000.00,028.0,026.9,000.0,036.3,029.8,29.8,0001.7,0016.36,0009.53,0008.45
2023-08-21 04:24:00,SystemResetWarning,0834.5,4.99,000.00,028.0,026.1,000.0,036.2,029.7,29.8,0001.9,0017.36,0009.48,0008.45
2023-08-21 04:25:00,SystemResetWarning,0834.4,5.00,000.00,027.9,024.4,000.0,036.1,029.3,29.8,0002.0,0018.11,0009.50,0008.45
2023-08-21 04:26:00,SystemResetWarning,0834.5,5.01,000.00,027.8,023.7,000.0,036.1,029.2,29.8,0002.0,0017.53,0009.44,0008.45
2023-08-21 04:27:00,SystemResetWarning,0834.4,5.01,000.00,027.8,023.9,000.0,036.0,029.0,29.9,0001.8,0017.14,0009.38,0008.43
2023-08-21 04:28:00,SystemResetWarning,0834.4,5.00,000.00,027.7,024.2,000.0,036.1,029.0,29.9,0001.8,0017.19,0009.36,0008.43
2023-08-21 04:29:00,SystemResetWarning,0834.4,5.00,000.00,027.7,024.7,000.0,036.1,029.2,29.7,0001.7,0017.10,0009.32,0008.43
2023-08-21 04:30:00,SystemResetWarning,0834.3,5.00,000.00,027.7,025.1,000.0,036.1,029.3,29.5,0001.9,0017.32,0009.35,0008.43
2023-08-21 04:31:00,SystemResetWarning,0834.6,5.00,000.00,027.7,025.5,000.0,036.1,029.4,29.1,0001.7,0017.03,0009.34,0008.41
2023-08-21 04:32:00,SystemResetWarning,0834.4,5.00,000.00,027.8,025.9,000.0,036.2,029.5,28.8,0001.4,0017.01,0009.33,0008.40
2023-08-21 04:33:00,SystemResetWarning,0834.4,4.99,000.00,027.8,026.2,000.0,036.2,029.6,28.7,0001.6,0017.37,0009.35,0008.38
2023-08-21 04:34:00,SystemResetWarning,0834.2,5.00,000.00,027.8,026.4,000.0,036.2,029.7,28.6,0001.5,0018.49,0009.39,0008.37
2023-08-21 04:35:00,SystemResetWarning,0834.3,5.00,000.00,027.9,026.6,000.0,036.2,029.7,28.3,0001.4,0018.21,0009.45,0008.37
2023-08-21 04:36:00,SystemResetWarning,0834.3,4.99,000.00,028.0,026.8,000.0,036.3,029.8,28.2,0001.4,0017.38,0009.45,0008.39
2023-08-21 04:37:00,SystemResetWarning,0834.3,5.00,000.00,028.0,026.5,000.0,036.3,029.8,28.0,0001.6,0017.96,0009.45,0008.39
2023-08-21 04:38:00,SystemResetWarning,0834.4,4.99,000.00,028.0,024.8,000.0,036.2,029.6,28.0,0002.0,0018.31,0009.47,0008.40
2023-08-21 04:39:00,SystemResetWarning,0834.4,5.01,000.00,027.9,023.7,000.0,036.1,029.3,27.8,0001.9,0018.31,0009.46,0008.38
2023-08-21 04:40:00,SystemResetWarning,0834.3,5.01,000.00,027.8,023.7,000.0,036.1,029.1,27.4,0002.3,0018.49,0009.48,0008.37
2023-08-21 04:41:00,SystemResetWarning,0834.6,5.01,000.00,027.7,024.0,000.0,036.1,029.0,27.6,0002.0,0018.39,0009.48,0008.37
2023-08-21 04:42:00,SystemResetWarning,0834.5,5.00,000.00,027.7,024.5,000.0,036.1,029.1,27.5,0002.4,0018.28,0009.48,0008.38
2023-08-21 04:43:00,SystemResetWarning,0834.3,5.00,000.00,027.7,025.0,000.0,036.1,029.3,27.3,0002.3,0019.11,0009.55,0008.40
2023-08-21 04:44:00,SystemResetWarning,0834.6,5.00,000.00,027.7,025.4,000.0,036.2,029.4,27.6,0002.0,0019.72,0009.53,0008.41
2023-08-21 04:45:00,SystemResetWarning,0834.6,5.00,000.00,027.7,025.7,000.0,036.2,029.5,27.2,0001.8,0018.62,0009.53,0008.42
2023-08-21 04:46:00,SystemResetWarning,0834.4,5.00,000.00,027.8,026.0,000.0,036.2,029.5,27.3,0001.6,0018.01,0009.50,0008.42
2023-08-21 04:47:00,SystemResetWarning,0834.3,4.99,000.00,027.8,026.3,000.0,036.2,029.6,26.6,0001.3,0018.04,0009.45,0008.40
2023-08-21 04:48:00,SystemResetWarning,0834.5,4.99,000.00,027.9,026.5,000.0,036.2,029.7,26.4,0001.1,0017.21,0009.45,0008.39
2023-08-21 04:49:00,SystemResetWarning,0834.3,5.01,000.00,027.9,026.7,000.0,036.3,029.8,25.9,0000.7,0016.71,0009.39,0008.39
2023-08-21 04:50:00,SystemResetWarning,0834.3,5.00,000.00,028.0,026.9,000.0,036.3,029.9,26.2,0000.3,0016.79,0009.38,0008.39
2023-08-21 04:51:00,SystemResetWarning,0834.3,5.01,000.00,028.0,026.9,000.0,036.3,029.9,25.8,0000.1,0017.09,0009.43,0008.40
2023-08-21 04:52:00,SystemResetWarning,0834.3,4.98,000.00,028.0,025.7,000.0,036.2,029.6,25.8,0000.4,0017.14,0009.40,0008.38
2023-08-21 04:53:00,SystemResetWarning,0834.4,5.00,000.00,027.9,024.1,000.0,036.1,029.3,25.7,-000.0,0016.91,0009.40,0008.37
2023-08-21 04:54:00,SystemResetWarning,0834.4,5.01,000.00,027.9,023.7,000.0,036.1,029.2,25.7,-000.3,0016.24,0009.39,0008.36
2023-08-21 04:55:00,SystemResetWarning,0834.6,5.01,000.00,027.7,023.9,000.0,036.1,029.0,25.5,-000.2,0015.83,0009.40,0008.35
2023-08-21 04:56:00,SystemResetWarning,0834.4,5.00,000.00,027.7,024.3,000.0,036.1,029.1,25.7,-000.4,0016.46,0009.42,0008.33
2023-08-21 04:57:00,SystemResetWarning,0834.5,5.00,000.00,027.7,024.8,000.0,036.1,029.2,25.5,-000.2,0017.44,0009.39,0008.32
2023-08-21 04:58:00,SystemResetWarning,0834.5,4.99,000.00,027.7,025.2,000.0,036.2,029.3,25.6,0000.2,0017.79,0009.44,0008.31
2023-08-21 04:59:00,SystemResetWarning,0834.5,5.00,000.00,027.8,025.6,000.0,036.2,029.4,25.7,0000.4,0017.71,0009.43,0008.30
